Hourly Weather Roundup
Issued by NWS Central Illinois

Home | Current Version | Previous Version | Text Only | Print | Product List | Glossary On
Versions: 1 2 3 4 5 6 7 8 9 10 11 12 13 14 15 16 17 18 19 20 21 22 23 24 25 26 27 28 29 30 31 32 33 34 35 36 37 38 39 40 41 42 43 44 45 46 47 48 49 50
000
NZUS43 KILX 261110
HWRILX

Area Weather Roundup
National Weather Service Lincoln IL
600 AM CDT THU APR 26 2018

NOTE:  "FAIR" indicates few or no clouds below 12,000 feet, with
       no sigificant weather and/or obstructions to visibility.


CITY           SKY/WX    TMP DP  RH WIND       PRES   REMARKS
Bloomington    FAIR      37  27  67 SE5       29.96R WCI  33
Champaign      FAIR      38  28  67 NE8       29.94S WCI  32
Danville       FAIR      32  30  92 CALM      29.93R
Decatur        FAIR      32  29  88 NE6       29.94S WCI  26
Effingham      FAIR      45  37  73 CALM      29.94S
Flora          FAIR      44  39  85 CALM      29.92S
Galesburg      FAIR      39  34  82 SE3       29.96S
Jacksonville   CLEAR     37  32  81 E5        29.94S WCI  33
Lacon          FAIR      32  29  88 CALM      29.95F
Lawrenceville  FAIR      45  35  68 MISG      29.92S
Litchfield     CLOUDY    44  36  74 NE3       29.93R
$$


CITY           SKY/WX    TMP DP  RH WIND       PRES   REMARKS
Lincoln        FAIR      34  32  92 NE3       29.94F
Macomb         CLEAR     34  31  88 E3        29.97R
Mattoon        FAIR      38  33  82 NE7       29.92S WCI  33
Mt Carmel AP   FAIR      44  34  67 NE7       29.91S
Olney-Noble AP FAIR      45  31  58 NE5       29.92S
Paris AP       FAIR      34  32  90 CALM      29.94S
Peoria         FAIR      36  30  79 CALM      29.96S
Pontiac        FAIR      33  32  97 CALM      29.96S
Rantoul        FAIR      35  32  88 CALM      29.95R
Robinson       FAIR      43  35  72 N5        29.93S
Springfield    FAIR      39  33  79 NE3       29.95S
Taylorville    FAIR      40  32  73 CALM      29.94S
$$

...REGIONAL REPORTS...


CITY           SKY/WX    TMP DP  RH WIND       PRES   REMARKS
Chicago O`Hare FAIR      36  29  75 W3        29.95S
Kankakee       FAIR      33  29  87 NW5       29.95S WCI  28
La Salle       FAIR      35  30  82 CALM      29.97S
Moline         FAIR      33  29  85 E3        29.95S
Mount Sterling CLEAR     40  35  84 CALM      29.93S
Mount Vernon   CLOUDY    51  37  58 NE8       29.90R
Pittsfield     CLEAR     43  37  80 NE3       29.94S
Quincy         CLEAR     47  38  71 E3        29.93S
Rockford       FAIR      32  27  81 CALM      29.97S
$$


CITY           SKY/WX    TMP DP  RH WIND       PRES   REMARKS
Burlington     CLEAR     38  32  79 SE3       29.94R
Cedar Rapids   FAIR      36  30  79 CALM      29.93S
Des Moines     CLOUDY    42  33  70 CALM      29.95S
Kirksville     CLEAR     41  36  82 NW7       29.95S
Ottumwa        CLOUDY    35  29  78 W5        29.93F WCI  31
St Louis       CLOUDY    53  43  68 NE5       29.91S
$$


CITY           SKY/WX    TMP DP  RH WIND       PRES   REMARKS
Terre Haute    FAIR      40  35  83 N5        29.92F
Evansville     CLOUDY    52  39  61 NE7       29.90R
Indianapolis   MOCLDY    39  31  72 N5        29.92R
Lafayette      FAIR      31  30  96 CALM      29.94R
Madison        MOCLDY    39  30  70 CALM      29.94F
Milwaukee      FAIR      37  29  72 CALM      29.96R
$$






USA.gov is the U.S. government's official web portal to all federal, state and local government web resources and services.